[[{"header":{"parameterUnit":"m.s-1","parameterCategory":1,"la1":30.2992,"la2":30.254,"lo1":-89.0895,"lo2":-89.0443,"dy":0.0025,"dx":0.0025,"nx":19,"ny":19,"refTime":"2026-05-08T21:00:00:Z","depth":0,"parameterNumber":2,"parameterNumberName":"U-component_of_WINDS"},"data":[0,0,0,1.1052,1.1053,1.1106,1.1106,1.1207,1.1208,0,0,0,0,0,0,0,0,0,0,0,1.1055,1.1056,1.1052,1.1054,1.1106,1.1106,1.1207,1.1208,0,0,0,0,0,0,0,0,0,0,0,1.1055,1.1056,1.1058,1.1054,1.1106,1.1106,1.1207,1.1156,0,0,0,0,0,0,0,0,0,0,1.1099,1.112,1.1056,1.1058,1.1054,1.1106,1.1106,1.1153,1.1159,1.1198,0,1.1236,0,1.1224,1.1217,1.1218,0,0,0,1.104,1.1115,1.1112,1.1058,1.1055,1.1106,1.1078,1.1156,1.1163,1.1206,1.1237,1.124,1.1226,1.1218,1.1219,1.1488,1.149,0,0,1.1037,1.1075,1.1107,1.1117,1.1109,1.1077,1.108,1.1159,1.1196,1.1237,1.1241,1.1227,1.1219,1.122,1.1487,1.1489,0,0,0,1.1038,1.1074,1.1068,1.1114,1.1121,1.1079,1.1082,1.1192,1.1187,1.1242,1.1228,1.122,1.1221,1.1484,1.1487,1.1621,0,0,0,1.1036,1.1074,1.1067,1.1091,1.112,1.1157,1.1114,1.1182,1.1189,1.1228,1.122,1.1223,1.1482,1.1486,1.1613,1.168,0,0,0,1.1046,1.1075,1.1089,1.1093,1.1116,1.1154,1.1153,1.1182,1.1182,1.1218,1.1223,1.1481,1.1485,1.1606,1.1667,1.1767,0,0,0,1.1067,1.1204,1.1091,1.1239,1.1116,1.1235,1.1152,1.1238,1.1285,1.122,1.1483,1.1487,1.1603,1.166,1.1759,1.186,1.1904,0,0,1.1261,1.1229,1.1313,1.1214,1.1363,1.1224,1.1393,1.1399,1.1368,1.1451,1.1457,1.1616,1.1667,1.1765,1.213,1.2166,0,0,0,1.1388,1.145,1.148,1.1527,1.1535,1.155,1.1526,1.1529,1.1598,1.1417,1.1674,1.1703,1.1759,1.1807,1.1837,1.1886,1.1509,1.1508,1.1508,1.1719,1.1672,1.1811,1.1772,1.1818,1.1794,1.1829,1.1829,1.1766,1.1828,1.1855,1.2082,1.2138,1.216,1.2212,1.1899,1.19,1.19,1.19,1.2005,1.2088,1.2003,1.2107,1.2059,1.2146,1.213,1.2084,1.2161,1.2057,1.2104,1.2,1.2201,1.2244,1.191,1.1908,1.1907,1.1906,1.1906,1.2221,1.2253,1.2254,1.232,1.2376,1.2331,1.2411,1.2361,1.2315,1.2361,1.2388,1.2386,1.2382,1.2376,1.2377,1.2378,1.2378,1.2379,1.238,1.2448,1.2445,1.2517,1.254,1.2566,1.2594,1.2573,1.2598,1.2614,1.2572,1.2572,1.2509,1.2226,1.2161,1.2392,1.239,1.2388,1.2387,1.2386,1.2764,1.2686,1.2798,1.2825,1.285,1.2913,1.2848,1.2904,1.2917,1.296,1.2885,1.2682,1.2646,1.2622,1.2568,1.289,1.289,1.289,1.289,1.2952,1.2928,1.3035,1.3081,1.312,1.3075,1.3209,1.3196,1.317,1.3177,1.3121,1.3043,1.302,1.2998,1.2965,1.2914,1.3318,1.3318,1.3318,1.3147,1.3125,1.3248,1.322,1.3238,1.3255,1.3382,1.3442,1.3395,1.3335,1.3182,1.3164,1.3037,1.2996,1.2938,1.2888,1.2792,0,0]},{"header":{"parameterUnit":"m.s-1","parameterCategory":1,"la1":30.2992,"la2":30.254,"lo1":-89.0895,"lo2":-89.0443,"dy":0.0025,"dx":0.0025,"nx":19,"ny":19,"refTime":"2026-05-08T21:00:00:Z","depth":0,"parameterNumber":3,"parameterNumberName":"V-component_of_WINDS"},"data":[0,0,0,3.1606,3.1611,3.1873,3.1874,3.2208,3.2211,0,0,0,0,0,0,0,0,0,0,0,3.1529,3.1531,3.1605,3.1612,3.1873,3.1874,3.2208,3.2211,0,0,0,0,0,0,0,0,0,0,0,3.1528,3.1531,3.1534,3.1613,3.1872,3.1874,3.2207,3.201,0,0,0,0,0,0,0,0,0,0,3.1756,3.1686,3.153,3.1534,3.1614,3.1872,3.1874,3.2,3.2022,3.2091,0,3.2152,0,3.2187,3.2234,3.2235,0,0,0,3.1611,3.1668,3.1738,3.1534,3.1617,3.1872,3.1755,3.2012,3.2037,3.212,3.2157,3.217,3.2193,3.2236,3.2238,3.2639,3.2641,0,0,3.1596,3.1576,3.1721,3.1754,3.1714,3.1746,3.1763,3.2027,3.2067,3.2158,3.2177,3.2198,3.2238,3.2241,3.2637,3.264,0,0,0,3.1556,3.1566,3.163,3.174,3.1787,3.1754,3.1773,3.2055,3.2077,3.2181,3.2202,3.224,3.2244,3.2635,3.2638,3.2715,0,0,0,3.1547,3.1543,3.1623,3.1614,3.1782,3.1925,3.1794,3.2059,3.2089,3.2201,3.224,3.2248,3.2633,3.2637,3.2708,3.2755,0,0,0,3.1512,3.1539,3.1577,3.1612,3.1724,3.1921,3.1958,3.2066,3.2103,3.2235,3.2249,3.2632,3.2636,3.2703,3.2745,3.2856,0,0,0,3.1468,3.164,3.1578,3.1778,3.1722,3.1966,3.1957,3.214,3.2263,3.2242,3.2634,3.2638,3.2701,3.2739,3.2849,3.2946,3.2984,0,0,3.1674,3.1664,3.1784,3.1735,3.1986,3.1928,3.219,3.2321,3.2351,3.2541,3.2551,3.2711,3.2744,3.2854,3.3204,3.3234,0,0,0,3.1842,3.1928,3.1999,3.2116,3.222,3.2314,3.2407,3.2456,3.2618,3.2445,3.2781,3.2801,3.2867,3.2914,3.294,3.2997,3.2659,3.2658,3.2658,3.2105,3.2135,3.2335,3.2398,3.2511,3.2606,3.2701,3.2782,3.2779,3.2858,3.2914,3.3123,3.3177,3.3197,3.3257,3.2967,3.2967,3.2968,3.2968,3.2409,3.2536,3.2529,3.272,3.2752,3.2912,3.3011,3.3003,3.3157,3.3082,3.3141,3.3057,3.3229,3.3283,3.2974,3.2973,3.2972,3.2972,3.2971,3.2585,3.2652,3.2709,3.2882,3.3012,3.3069,3.3218,3.324,3.3262,3.3321,3.3384,3.3383,3.3386,3.3349,3.335,3.3351,3.3352,3.3352,3.3353,3.2746,3.2808,3.2931,3.3058,3.3137,3.3244,3.3341,3.3419,3.3512,3.3516,3.3517,3.3506,3.324,3.3173,3.3364,3.3362,3.336,3.3359,3.3359,3.3045,3.2981,3.3172,3.3251,3.3403,3.3531,3.3558,3.3716,3.3783,3.3857,3.3834,3.3633,3.3624,3.3604,3.3549,3.3826,3.3826,3.3826,3.3826,3.3194,3.3192,3.3393,3.3519,3.3644,3.3688,3.3904,3.3982,3.4052,3.4096,3.4059,3.3988,3.3966,3.397,3.3942,3.3891,3.4249,3.425,3.425,3.338,3.3392,3.3571,3.364,3.3761,3.3864,3.4067,3.4211,3.4278,3.4268,3.4131,3.4114,3.3999,3.3959,3.3946,3.3902,3.3809,0,0]}]]